This is the latest recevied weather packets stored in our database for station/object JF7BTK-10. If no packets are shown the sender has not sent any weather packets the latest 10 day(s).
| Time | Temp. | Humidity | Pressure | Rain* | Wind** | Luminosity | Snow |
|---|---|---|---|---|---|---|---|
| 1788314287 | 23.89° C | 99% | 1006 hPa | 7.87 mm | - | - | - |
| 1788313387 | 23.33° C | 99% | 1006.8 hPa | 7.87 mm | - | - | - |
| 1788312489 | 23.33° C | 99% | 1006.4 hPa | 7.87 mm | - | - | - |
| 1788311587 | 23.89° C | 99% | 1006.6 hPa | 5.08 mm | - | - | - |
| 1788310688 | 24.44° C | 99% | 1006.5 hPa | 0 mm | - | - | - |
| 1788309788 | 24.44° C | 99% | 1006.5 hPa | 0 mm | - | - | - |
| 1788308888 | 23.89° C | 99% | 1006.5 hPa | 0 mm | - | - | - |
| 1788307988 | 23.89° C | 99% | 1006.5 hPa | 0 mm | - | - | - |
| 1788307088 | 23.33° C | 99% | 1006.4 hPa | 0 mm | - | - | - |
| 1788306187 | 23.33° C | 99% | 1006.6 hPa | 0 mm | - | - | - |
| 1788305288 | 22.78° C | 99% | 1006.6 hPa | 0 mm | - | - | - |
| 1788304388 | 22.22° C | 99% | 1006.3 hPa | 0 mm | - | - | - |
| 1788303489 | 22.22° C | 99% | 1006.5 hPa | 0 mm | - | - | - |
| 1788302588 | 21.67° C | 99% | 1006.2 hPa | 0 mm | - | - | - |
| 1788301689 | 21.67° C | 99% | 1006.3 hPa | 0 mm | - | - | - |
| 1788300788 | 21.67° C | 99% | 1006.4 hPa | 0 mm | - | - | - |
| 1788299888 | 21.67° C | 99% | 1006.6 hPa | 0 mm | - | - | - |
| 1788298987 | 21.67° C | 99% | 1006.6 hPa | 0 mm | - | - | - |
| 1788298088 | 21.67° C | 99% | 1006.4 hPa | 0 mm | - | - | - |
| 1788297189 | 21.67° C | 99% | 1006 hPa | 0.25 mm | - | - | - |
| 1788296289 | 21.67° C | 99% | 1006 hPa | 0.25 mm | - | - | - |
| 1788295388 | 21.67° C | 99% | 1005.8 hPa | 0.25 mm | - | - | - |
| 1788294488 | 21.67° C | 99% | 1005.5 hPa | 0.25 mm | - | - | - |
| 1788293587 | 21.67° C | 99% | 1005.6 hPa | 1.78 mm | - | - | - |
| 1788292688 | 21.11° C | 99% | 1005.6 hPa | 2.29 mm | - | - | - |
* Rain latest hour (hover to see other rain measurements)
** Current wind speed in m/s (hover to see current wind gust speed)